Klawock, AK

6:06 PM AKDT on March 26, 2017 (GMT -0800)
Klawock

Weather History for PAKW - April, 2014

Change the Weather History Date:

Thursday, April 3, 2014

  Actual Average Record
Temperature  
Mean Temperature 38 °F -  
Max Temperature 46 °F 44 °F 55 °F (2016)
Min Temperature 28 °F 30 °F 23 °F (2002)
Degree Days  
Heating Degree Days 28    
Moisture  
Dew Point 34 °F    
Average Humidity 89    
Maximum Humidity 100    
Minimum Humidity 56    
Precipitation  
Precipitation 0.11 in - - ()
Sea Level Pressure  
Sea Level Pressure 29.72 in    
Wind  
Wind Speed 3 mph (WSW)    
Max Wind Speed 9 mph    
Max Gust Speed -    
Visibility 8 miles    
Events Rain    
Averages and records for this station are not official NWS values.
T = Trace of Precipitation, MM = Missing Value Source: NWS Daily Summary

Daily Weather History Graph

Daily Weather History Graph

Search for Another Location

Airport or City:

Trip Planner

Search our weather history database for the weather conditions in past years. The results will help you decide how hot, cold, wet, or windy it might be!

Date:

Astronomy

Apr. 03, 2014 Rise Set
Actual Time 6:17 AM AKDT 7:34 PM AKDT
Civil Twilight 5:39 AM AKDT 8:12 PM AKDT
Nautical Twilight 4:53 AM AKDT 8:59 PM AKDT
Astronomical Twilight 4:02 AM AKDT 9:51 PM AKDT
Moon 8:17 AM AKDT (4/3) No Moon Set
Length of Visible Light 14h 32m
Length of Day
13h 16m
Waxing Crescent, 18% of the Moon is Illuminated
Apr 3
Waxing Crescent
Apr 7
First Quarter
Apr 14
Full
Apr 21
Last Quarter
Apr 28
New

Hourly Weather History & Observations

Time (AKDT) Temp. Windchill Dew Point Humidity Pressure Visibility Wind Dir Wind Speed Gust Speed Precip Events Conditions
12:10 AM 36.0 °F - 35.1 °F 97% 29.68 in 10.0 mi Calm Calm - 0.01 in Rain Light Rain
12:53 AM 36.0 °F 33.3 °F 35.1 °F 97% 29.69 in 10.0 mi NE 3.5 mph - 0.02 in Rain Light Rain
1:53 AM 36.0 °F 33.3 °F 35.1 °F 97% 29.69 in 10.0 mi South 3.5 mph - 0.00 in   Overcast
2:53 AM 37.0 °F 33.3 °F 35.1 °F 93% 29.70 in 2.5 mi SSW 4.6 mph - 0.03 in Rain Rain
2:59 AM 37.0 °F 31.0 °F 36.0 °F 96% 29.70 in 1.8 mi SSW 8.1 mph - 0.01 in Rain Light Rain
3:02 AM 37.0 °F 31.6 °F 36.0 °F 96% 29.70 in 2.0 mi SSW 6.9 mph - 0.01 in Rain Light Rain
3:13 AM 37.0 °F 34.5 °F 36.0 °F 96% 29.71 in 6.0 mi South 3.5 mph - 0.01 in   Overcast
3:32 AM 37.0 °F 31.6 °F 36.0 °F 96% 29.71 in 10.0 mi WSW 6.9 mph - 0.01 in   Overcast
3:53 AM 36.0 °F 31.1 °F 35.1 °F 97% 29.72 in 10.0 mi West 5.8 mph - 0.01 in   Overcast
4:53 AM 36.0 °F - 34.0 °F 93% 29.72 in 4.0 mi Calm Calm - N/A   Overcast
5:23 AM 36.0 °F - 35.1 °F 97% 29.72 in 2.0 mi Calm Calm - 0.01 in   Overcast
5:29 AM 36.0 °F - 35.1 °F 97% 29.72 in 3.0 mi Calm Calm - 0.01 in   Overcast
5:53 AM 35.1 °F - 35.1 °F 100% 29.72 in 4.0 mi Calm Calm - 0.01 in   Overcast
5:56 AM 35.1 °F - 35.1 °F 100% 29.72 in 5.0 mi Calm Calm - N/A   Overcast
5:59 AM 35.1 °F - 34.0 °F 96% 29.72 in 6.0 mi Calm Calm - N/A   Overcast
6:53 AM 35.1 °F - 34.0 °F 96% 29.73 in 10.0 mi Calm Calm - 0.01 in   Mostly Cloudy
7:27 AM 35.1 °F - 34.0 °F 96% 29.72 in 10.0 mi Calm Calm - N/A   Overcast
7:40 AM 35.1 °F - 34.0 °F 96% 29.72 in 10.0 mi Calm Calm - N/A   Mostly Cloudy
7:53 AM 36.0 °F 33.3 °F 35.1 °F 97% 29.72 in 10.0 mi ENE 3.5 mph - N/A   Mostly Cloudy
8:07 AM 36.0 °F - 34.0 °F 93% 29.71 in 10.0 mi Calm Calm - N/A   Mostly Cloudy
8:20 AM 36.0 °F - 34.0 °F 93% 29.71 in 10.0 mi Calm Calm - N/A   Overcast
8:53 AM 37.9 °F - 35.1 °F 89% 29.72 in 10.0 mi Calm Calm - N/A   Scattered Clouds
9:53 AM 37.9 °F - 34.0 °F 86% 29.72 in 10.0 mi Calm Calm - N/A   Mostly Cloudy
10:21 AM 39.9 °F - 33.1 °F 77% 29.72 in 10.0 mi Calm Calm - N/A   Mostly Cloudy
10:44 AM 39.9 °F 35.1 °F 34.0 °F 79% 29.72 in 10.0 mi WNW 6.9 mph - N/A   Mostly Cloudy
10:53 AM 37.0 °F 31.0 °F 34.0 °F 89% 29.73 in 5.0 mi West 8.1 mph - 0.00 in Rain Light Rain
11:31 AM 37.0 °F - 35.1 °F 93% 29.73 in 10.0 mi Calm Calm - 0.03 in Rain Light Rain
11:53 AM 39.9 °F - 36.0 °F 86% 29.73 in 10.0 mi Calm Calm - 0.03 in   Mostly Cloudy
12:53 PM 43.0 °F 38.8 °F 37.9 °F 82% 29.73 in 10.0 mi SW 6.9 mph - N/A   Scattered Clouds
1:53 PM 42.1 °F 38.4 °F 36.0 °F 79% 29.72 in 10.0 mi WSW 5.8 mph - N/A   Mostly Cloudy
2:10 PM 39.9 °F 34.5 °F 35.1 °F 83% 29.72 in 8.0 mi West 8.1 mph - 0.00 in Rain Light Rain
2:20 PM 41.0 °F 36.4 °F 37.0 °F 86% 29.72 in 10.0 mi WSW 6.9 mph - 0.00 in   Scattered Clouds
2:53 PM 43.0 °F 38.8 °F 33.1 °F 68% 29.72 in 10.0 mi NW 6.9 mph - 0.00 in   Mostly Cloudy
3:53 PM 44.1 °F 39.0 °F 30.9 °F 60% 29.71 in 10.0 mi West 9.2 mph - N/A   Mostly Cloudy
4:53 PM 45.0 °F 40.6 °F 30.9 °F 58% 29.71 in 10.0 mi West 8.1 mph - N/A   Mostly Cloudy
5:53 PM 45.0 °F 40.6 °F 30.0 °F 56% 29.71 in 10.0 mi NNW 8.1 mph - N/A   Overcast
7:53 PM 36.0 °F - 30.9 °F 82% 29.72 in 10.0 mi Calm Calm - N/A   Clear
8:53 PM 35.1 °F 32.2 °F 32.0 °F 89% 29.72 in 10.0 mi South 3.5 mph - N/A   Clear
9:53 PM 33.1 °F - 30.0 °F 89% 29.73 in 10.0 mi Calm Calm - N/A   Clear
10:53 PM 30.9 °F - 28.9 °F 92% 29.72 in 10.0 mi Calm Calm - N/A   Clear
11:53 PM 28.9 °F - 28.0 °F 96% 29.73 in 10.0 mi Calm Calm - N/A   Clear